Location: 3 Angels Observatory
(30.5437°N, 88.5068°W)
Time: 10:37:36
(UTC-06:00)

Amateur Radio Satellites - All Passes

Search period start: 01 February 2015 10:07
Search period end: 02 February 2015 10:07
Location: 3 Angels Observatory, 30.5437°N, 88.5068°W

Satellite Date Start Highest point End Downlink Frequencies (MHz)
Time Altitude Azimuth
QB50P2 01 Feb 10:12:22 10:16:39 84° 78° (ENE) 10:20:59 145.880/145.840
HO-68 01 Feb 10:12:25 10:17:57 24° 294° (WNW) 10:23:14 435.675
BUGSAT 1 01 Feb 10:14:38 10:18:40 63° 76° (ENE) 10:22:47 437.445
SO-50 01 Feb 10:15:00 10:17:54 16° 310° (NW) 10:20:41 436.795
ANTELSAT 01 Feb 10:19:50 10:24:23 45° 261° (W) 10:28:53 437.575/2403.000
QB50P1 01 Feb 10:20:30 10:24:46 78° 258° (WSW) 10:29:05 145.935-145.965
BEESAT 2 01 Feb 10:23:50 10:27:51 47° 60° (ENE) 10:31:49 435.950
DOVE 4 01 Feb 10:24:28 10:26:45 13° 293° (WNW) 10:28:42 437.250
TIGRISAT 01 Feb 10:25:39 10:30:06 40° 262° (W) 10:34:30 435.000
ZACube-1 01 Feb 10:26:23 10:30:32 44° 285° (WNW) 10:34:34 437.345
DX 1 01 Feb 10:29:44 10:33:46 35° 287° (WNW) 10:37:44 434.975-435.025
CUBEBUG 2 01 Feb 10:34:12 10:37:55 25° 288° (WNW) 10:41:25 437.445
BEESAT 3 01 Feb 10:34:21 10:38:30 76° 62° (ENE) 10:42:33 437.485
RS-15 01 Feb 10:35:26 10:38:06 11° 25° (NNE) 10:41:28 29.354- 29.394
FUNcube-1 01 Feb 10:37:22 10:41:17 33° 286° (WNW) 10:45:04 145.935
AIST 2 01 Feb 10:37:43 10:41:18 26° 56° (NE) 10:44:54 435.215
POLYITAN 1 01 Feb 10:37:47 10:41:55 45° 261° (W) 10:46:05 437.675
50 SAT 01 Feb 10:43:12 10:47:13 74° 283° (WNW) 10:51:10 437.505
AIST 1 01 Feb 10:53:42 10:57:54 61° 277° (W) 11:02:06
POPSAT HIP 1 01 Feb 10:56:30 11:00:11 27° 264° (W) 11:03:50 437.405
DUCHIFAT 1 01 Feb 10:57:06 11:00:45 27° 263° (W) 11:04:23 145.980
PHONESAT 2.4 01 Feb 11:03:21 11:06:06 20° 11° (N) 11:08:52 2401.200-2431.200
SPROUT 01 Feb 11:07:39 11:10:06 15° 93° (E) 11:12:45 437.525
UWE-3 01 Feb 11:08:33 11:10:32 13° 291° (WNW) 11:12:15 435.000/436.395/437.385
AISAT 01 Feb 11:10:28 11:14:35 34° 286° (WNW) 11:18:36 437.250
VERMONT LUNAR 01 Feb 11:22:03 11:25:12 31° 20° (NNE) 11:28:22 437.305
Oscar 19 01 Feb 11:23:09 11:24:35 11° 67° (ENE) 11:26:22 437.125/150
ESTCUBE 1 01 Feb 11:23:53 11:28:21 60° 284° (WNW) 11:32:50 437.505/2401.250
PCSat 01 Feb 11:29:26 11:29:56 10° 48° (NE) 11:30:48 145.827
TISAT 1 01 Feb 11:31:51 11:35:35 29° 97° (E) 11:39:21 437.305
CUBEBUG 1 01 Feb 11:34:33 11:38:50 47° 285° (WNW) 11:43:06 437.445
VELOX 1 01 Feb 11:37:46 11:40:52 18° 289° (WNW) 11:43:49 145.980
GONETS M04 01 Feb 11:38:46 11:47:05 50° 79° (E) 11:55:29
HUMSAT D 01 Feb 11:41:00 11:42:21 11° 291° (WNW) 11:43:27 437.325/437.525
BEESAT 2 01 Feb 12:04:57 12:05:41 10° 251° (WSW) 12:06:09 435.950
BEESAT 01 Feb 12:12:49 12:13:48 11° 91° (E) 12:15:08 436.000
AIST 2 01 Feb 12:16:34 12:19:47 20° 249° (WSW) 12:22:51 435.215
ITUPSAT 1 01 Feb 12:18:03 12:20:00 13° 92° (E) 12:22:14 437.325
PHONESAT 2.4 01 Feb 12:41:30 12:45:05 63° 26° (NNE) 12:48:43 2401.200-2431.200
SPROUT 01 Feb 12:42:25 12:46:20 33° 286° (WNW) 12:50:11 437.525
RS-15 01 Feb 12:43:59 12:54:43 45° 53° (NE) 13:06:03 29.354- 29.394
Oscar 19 01 Feb 12:58:18 13:03:28 68° 259° (W) 13:08:39 437.125/150
VERMONT LUNAR 01 Feb 13:00:01 13:03:22 44° 214° (SW) 13:06:42 437.305
Gurwin Techsat 1B 01 Feb 13:01:16 13:05:36 27° 71° (ENE) 13:10:02 435.225
TISAT 1 01 Feb 13:08:20 13:11:13 17° 289° (WNW) 13:13:58 437.305
PCSat 01 Feb 13:08:47 13:14:14 89° 76° (ENE) 13:19:38 145.827
AO-7 01 Feb 13:20:33 13:23:16 12° 57° (ENE) 13:26:38 29.400- 29.500
ITAMSAT 1 01 Feb 13:22:14 13:27:21 68° 76° (ENE) 13:32:32 435.822/435.867
SWISSCUBE 01 Feb 13:32:11 13:36:58 76° 284° (WNW) 13:41:46 437.505
GONETS M04 01 Feb 13:36:29 13:43:35 28° 273° (W) 13:50:21
BEESAT 01 Feb 13:47:22 13:52:03 56° 285° (WNW) 13:56:43 436.000
ITUPSAT 1 01 Feb 13:53:35 13:58:13 48° 285° (WNW) 14:02:48 437.325
HORYU 2 01 Feb 13:55:31 13:59:09 25° 72° (ENE) 14:02:53 437.375
PHONESAT 2.4 01 Feb 14:20:50 14:23:27 18° 219° (SW) 14:25:59 2401.200-2431.200
JUGNU 01 Feb 14:28:55 14:32:45 18° 166° (SSE) 14:36:41 437.505
STARS 01 Feb 14:33:02 14:37:22 52° 100° (E) 14:41:40 437.465
AUBIESAT-1 01 Feb 14:38:40 14:40:17 13° 100° (E) 14:42:09 437.475
Gurwin Techsat 1B 01 Feb 14:40:54 14:45:30 29° 264° (W) 14:50:00 435.225
DANDE 01 Feb 14:43:22 14:48:56 55° 77° (ENE) 14:53:00 436.750
KKS-1 01 Feb 14:47:24 14:51:51 63° 284° (WNW) 14:56:15 437.445
CUSAT 1 01 Feb 14:53:22 14:58:35 87° 263° (W) 15:02:24 437.405
RS-15 01 Feb 14:56:24 15:07:15 46° 250° (WSW) 15:18:19 29.354- 29.394
AO-7 01 Feb 15:06:37 15:14:56 74° 72° (ENE) 15:23:18 29.400- 29.500
SRMSAT 01 Feb 15:16:59 15:19:46 14° 163° (SSE) 15:22:40 437.500
O/OREOS (USA 219) 01 Feb 15:21:00 15:25:24 57° 290° (WNW) 15:29:51 437.305
JAS-2 01 Feb 15:27:44 15:32:50 41° 74° (ENE) 15:37:43 435.910
HORYU 2 01 Feb 15:32:14 15:35:48 22° 265° (W) 15:39:14 437.375
M-CUBED/EXP-1 PRIME 01 Feb 15:41:50 15:45:11 57° 287° (WNW) 15:48:42 437.505
STARS 01 Feb 16:12:16 16:13:27 11° 292° (WNW) 16:14:20 437.465
AUBIESAT-1 01 Feb 16:12:27 16:15:15 24° 290° (WNW) 16:18:08 437.475
CUTE-I 01 Feb 16:15:22 16:17:44 14° 67° (ENE) 16:20:25 437.470
JUGNU 01 Feb 16:16:21 16:21:16 28° 175° (S) 16:26:13 437.505
MOZHAYETS 4 01 Feb 16:52:28 16:57:02 73° 283° (WNW) 17:01:35
AO-7 01 Feb 17:02:55 17:08:31 18° 267° (W) 17:13:34 29.400- 29.500
SRMSAT 01 Feb 17:03:41 17:08:25 25° 171° (S) 17:13:13 437.500
SO-50 01 Feb 17:11:40 17:13:20 12° 47° (NE) 17:15:14 436.795
JAS-2 01 Feb 17:14:30 17:18:11 17° 266° (W) 17:21:27 435.910
CUBESAT XI-V 01 Feb 17:20:35 17:22:25 12° 91° (E) 17:24:34 437.345
PRISM 01 Feb 17:25:32 17:28:24 18° 95° (E) 17:31:24 437.425
Cubesat XI-IV 01 Feb 17:33:09 17:38:28 89° 88° (E) 17:43:50 437.490
CUTE-I 01 Feb 17:52:08 17:57:22 60° 259° (W) 18:02:39 437.470
JUGNU 01 Feb 18:04:52 18:09:49 28° 185° (S) 18:14:48 437.505
ISS 01 Feb 18:28:11 18:29:57 14° 127° (SE) 18:31:50 145.825
YUBILEINY 01 Feb 18:29:23 18:37:35 50° 91° (E) 18:45:54 435.215
BRITE-PL 01 Feb 18:38:26 18:40:41 13° 67° (ENE) 18:43:19 437.365/2234.400
HO-68 01 Feb 18:47:38 18:52:45 23° 65° (ENE) 18:58:09 435.675
SO-50 01 Feb 18:49:34 18:54:30 76° 244° (WSW) 18:59:23 436.795
SRMSAT 01 Feb 18:52:01 18:57:09 30° 181° (S) 19:02:17 437.500
STRAND 1 01 Feb 18:54:59 19:00:10 82° 284° (WNW) 19:05:19 437.568
CUBESAT XI-V 01 Feb 18:55:38 19:00:10 47° 285° (WNW) 19:04:41 437.345
PRISM 01 Feb 19:00:27 19:03:55 25° 287° (WNW) 19:07:21 437.425
COMPASS 1 01 Feb 19:14:59 19:16:22 12° 70° (ENE) 19:18:00 437.405
AAUSAT CUBESAT 2 01 Feb 19:36:42 19:39:38 19° 72° (ENE) 19:42:41 437.432
CANX-2 01 Feb 19:38:05 19:42:03 38° 75° (ENE) 19:46:03 2200.000
DOVE 4 01 Feb 19:44:13 19:48:37 32° 72° (ENE) 19:53:17 437.250
GOMX 1 01 Feb 19:49:28 19:54:21 52° 75° (ENE) 19:59:35 467.674
CUBEBUG 2 01 Feb 19:53:02 19:54:00 11° 68° (ENE) 19:55:18 437.445
JUGNU 01 Feb 19:54:20 19:58:21 18° 194° (SSW) 20:02:19 437.505
CUTE 1.7 + AOD 2 01 Feb 20:01:20 20:05:35 70° 78° (ENE) 20:09:52 437.475
ISS 01 Feb 20:03:14 20:06:13 33° 319° (NW) 20:09:14 145.825
BRITE-PL 01 Feb 20:13:40 20:18:37 60° 260° (W) 20:23:59 437.365/2234.400
Oscar 11 01 Feb 20:17:01 20:20:41 28° 73° (ENE) 20:24:26 145.826/435.025
UWE-3 01 Feb 20:22:25 20:25:44 20° 71° (ENE) 20:29:13 435.000/436.395/437.385
SEEDS 01 Feb 20:26:35 20:30:49 66° 260° (W) 20:35:03 437.485
YUBILEINY 01 Feb 20:27:29 20:34:46 28° 287° (WNW) 20:41:46 435.215
HO-68 01 Feb 20:33:04 20:40:04 56° 259° (WSW) 20:47:04 435.675
CINEMA 3 01 Feb 20:39:17 20:44:11 70° 76° (ENE) 20:49:13 145.822/145.860
SRMSAT 01 Feb 20:41:12 20:45:52 23° 190° (S) 20:50:30 437.500
DELFI C3 01 Feb 20:44:09 20:48:03 46° 76° (ENE) 20:51:59 145.870
COMPASS 1 01 Feb 20:47:45 20:51:47 42° 261° (W) 20:55:48 437.405
HUMSAT D 01 Feb 20:50:39 20:53:21 17° 71° (ENE) 20:56:11 437.325/437.525
UKube-1 01 Feb 20:54:06 20:58:10 42° 74° (ENE) 21:02:18 .
VELOX 1 01 Feb 20:54:23 20:56:47 15° 70° (ENE) 20:59:23 145.980
AIST 1 01 Feb 21:07:36 21:10:37 19° 76° (ENE) 21:13:47
AAUSAT CUBESAT 2 01 Feb 21:11:38 21:15:10 25° 264° (W) 21:18:37 437.432
ZACube-1 01 Feb 21:16:05 21:20:39 69° 77° (ENE) 21:25:15 437.345
CANX-2 01 Feb 21:16:09 21:18:12 13° 268° (W) 21:19:59 2200.000
DX 1 01 Feb 21:19:19 21:23:40 86° 257° (WSW) 21:28:03 434.975-435.025
DOVE 4 01 Feb 21:22:22 21:26:25 23° 267° (W) 21:30:28 437.250
50 SAT 01 Feb 21:25:15 21:28:51 30° 74° (ENE) 21:32:31 437.505
CUBEBUG 2 01 Feb 21:25:33 21:30:15 62° 260° (W) 21:35:00 437.445
FUNcube-1 01 Feb 21:26:40 21:31:16 89° 266° (W) 21:35:53 145.935
GOMX 1 01 Feb 21:30:04 21:32:54 14° 271° (W) 21:35:30 467.674
UNISAT 6 01 Feb 21:42:27 21:45:38 20° 94° (E) 21:48:54 437.425
NANOSAT C BR1 01 Feb 21:49:00 21:50:51 13° 92° (E) 21:52:57 145.865
Oscar 11 01 Feb 21:53:49 21:56:55 18° 266° (W) 21:59:51 145.826/435.025
UWE-3 01 Feb 21:57:56 22:02:06 31° 263° (W) 22:06:14 435.000/436.395/437.385
AISAT 01 Feb 22:02:26 22:06:52 78° 258° (WSW) 22:11:21 437.250
BUGSAT 1 01 Feb 22:04:06 22:06:31 15° 93° (E) 22:09:08 437.445
QB50P2 01 Feb 22:04:28 22:07:42 21° 95° (E) 22:11:02 145.880/145.840
QB50P1 01 Feb 22:12:06 22:15:40 26° 96° (E) 22:19:18 145.935-145.965
ANTELSAT 01 Feb 22:17:52 22:22:10 58° 100° (E) 22:26:23 437.575/2403.000
ESTCUBE 1 01 Feb 22:17:55 22:22:20 61° 76° (ENE) 22:26:46 437.505/2401.250
TISAT 1 01 Feb 22:21:20 22:22:34 11° 69° (ENE) 22:24:03 437.305
TIGRISAT 01 Feb 22:23:13 22:27:34 66° 101° (E) 22:31:49 435.000
CUBEBUG 1 01 Feb 22:24:59 22:29:17 69° 77° (ENE) 22:33:39 437.445
HUMSAT D 01 Feb 22:25:01 22:28:55 32° 263° (W) 22:32:48 437.325/437.525
VELOX 1 01 Feb 22:28:59 22:33:06 37° 262° (W) 22:37:13 145.980
POLYITAN 1 01 Feb 22:29:10 22:33:17 44° 99° (E) 22:37:22 437.675
SRMSAT 01 Feb 22:32:15 22:34:32 12° 198° (SSW) 22:36:40 437.500
UKube-1 01 Feb 22:32:55 22:34:36 12° 268° (W) 22:36:00 .
AIST 1 01 Feb 22:44:38 22:48:18 26° 269° (W) 22:51:52
POPSAT HIP 1 01 Feb 22:46:52 22:51:11 75° 101° (ESE) 22:55:26 437.405
DUCHIFAT 1 01 Feb 22:47:07 22:51:25 74° 101° (ESE) 22:55:40 145.980
50 SAT 01 Feb 23:01:33 23:04:03 15° 267° (W) 23:06:22 437.505
UNISAT 6 01 Feb 23:18:49 23:22:26 25° 288° (WNW) 23:25:53 437.425
NANOSAT C BR1 01 Feb 23:22:57 23:26:56 37° 286° (WNW) 23:30:51 145.865
SPROUT 01 Feb 23:30:28 23:34:47 90° 95° (E) 23:39:08 437.525
BUGSAT 1 01 Feb 23:38:17 23:42:08 32° 286° (WNW) 23:45:56 437.445
QB50P2 01 Feb 23:40:07 23:43:34 23° 288° (WNW) 23:46:55 145.880/145.840
QB50P1 01 Feb 23:48:18 23:51:26 19° 289° (WNW) 23:54:25 145.935-145.965
TISAT 1 01 Feb 23:53:59 23:58:02 45° 261° (W) 00:02:08 437.305
POLYITAN 1 02 Feb 00:07:09 00:08:53 12° 291° (WNW) 00:10:22 437.675
BEESAT 2 02 Feb 00:13:27 00:17:10 35° 113° (ESE) 00:20:59 435.950
BEESAT 3 02 Feb 00:23:05 00:27:03 56° 115° (ESE) 00:31:07 437.485
AIST 2 02 Feb 00:31:05 00:34:14 21° 111° (ESE) 00:37:33 435.215
GONETS M04 02 Feb 00:32:08 00:40:49 70° 93° (E) 00:49:28
SWISSCUBE 02 Feb 00:33:12 00:37:54 64° 75° (ENE) 00:42:37 437.505
BEESAT 02 Feb 00:48:07 00:52:53 87° 73° (ENE) 00:57:40 436.000
ITUPSAT 1 02 Feb 00:54:37 00:59:22 81° 258° (WSW) 01:04:09 437.325
Oscar 19 02 Feb 01:15:39 01:20:46 70° 101° (ESE) 01:25:52 437.125/150
Gurwin Techsat 1B 02 Feb 01:23:49 01:27:02 17° 93° (E) 01:30:29 435.225
STARS 02 Feb 01:25:16 01:28:45 24° 72° (ENE) 01:32:21 437.465
O/OREOS (USA 219) 02 Feb 01:36:27 01:41:04 78° 252° (WSW) 01:45:38 437.305
KKS-1 02 Feb 01:39:54 01:44:17 57° 76° (ENE) 01:48:43 437.445
ITAMSAT 1 02 Feb 01:41:03 01:45:54 39° 98° (E) 01:50:46 435.822/435.867
BEESAT 2 02 Feb 01:52:57 01:55:33 16° 308° (NW) 01:58:02 435.950
PCSat 02 Feb 02:02:34 02:06:55 26° 108° (ESE) 02:11:24 145.827
BEESAT 3 02 Feb 02:04:32 02:05:37 11° 311° (NW) 02:06:28 437.485
DANDE 02 Feb 02:04:40 02:09:33 18° 85° (E) 02:15:07 436.750
AIST 2 02 Feb 02:09:09 02:12:45 26° 304° (NW) 02:16:20 435.215
CUSAT 1 02 Feb 02:10:28 02:16:29 24° 88° (E) 02:23:01 437.405
M-CUBED/EXP-1 PRIME 02 Feb 02:25:44 02:29:47 70° 73° (ENE) 02:33:30 437.505
GONETS M04 02 Feb 02:32:19 02:38:30 20° 291° (WNW) 02:44:10
ISS 02 Feb 02:35:46 02:38:00 17° 36° (NE) 02:40:19 145.825
AUBIESAT-1 02 Feb 02:55:31 02:59:27 50° 255° (WSW) 03:03:04 437.475
Oscar 19 02 Feb 02:58:19 02:59:37 11° 293° (WNW) 03:00:35 437.125/150
RS-15 02 Feb 03:00:39 03:10:52 48° 110° (ESE) 03:21:10 29.354- 29.394
STARS 02 Feb 03:01:34 03:05:10 23° 264° (W) 03:08:40 437.465
Gurwin Techsat 1B 02 Feb 03:02:12 03:07:16 45° 287° (WNW) 03:12:17 435.225
AO-7 02 Feb 03:15:17 03:22:37 35° 98° (E) 03:30:03 29.400- 29.500
ITAMSAT 1 02 Feb 03:21:22 03:25:10 20° 291° (WNW) 03:28:46 435.822/435.867
HORYU 2 02 Feb 03:28:14 03:32:40 72° 283° (WNW) 03:37:03 437.375
DANDE 02 Feb 03:44:00 03:52:12 82° 278° (W) 04:00:55 436.750
PCSat 02 Feb 03:45:22 03:50:13 32° 301° (WNW) 03:55:01 145.827
MOZHAYETS 4 02 Feb 03:48:48 03:53:15 53° 76° (ENE) 03:57:43
CUSAT 1 02 Feb 03:50:54 03:59:02 64° 280° (W) 04:07:21 437.405
ISS 02 Feb 04:11:34 04:14:34 33° 230° (SW) 04:17:33 145.825
JAS-2 02 Feb 04:25:06 04:31:09 67° 102° (ESE) 04:38:01 435.910
YUBILEINY 02 Feb 04:48:14 04:53:28 18° 68° (ENE) 04:59:15 435.215
AO-7 02 Feb 05:07:46 05:15:29 42° 293° (WNW) 05:23:01 29.400- 29.500
RS-15 02 Feb 05:13:14 05:23:23 40° 309° (NW) 05:33:26 29.354- 29.394
PHONESAT 2.4 02 Feb 05:29:57 05:33:00 27° 143° (SE) 05:36:05 2401.200-2431.200
MOZHAYETS 4 02 Feb 05:30:02 05:30:52 10° 270° (W) 05:31:19
DANDE 02 Feb 05:32:15 05:37:01 15° 296° (WNW) 05:41:12 436.750
VERMONT LUNAR 02 Feb 05:42:58 05:46:25 74° 150° (SSE) 05:49:52 437.305
PRISM 02 Feb 05:44:46 05:48:52 75° 258° (WSW) 05:52:58 437.425
CUBESAT XI-V 02 Feb 05:53:12 05:57:48 87° 76° (ENE) 06:02:25 437.345
Cubesat XI-IV 02 Feb 05:56:17 06:01:35 58° 101° (E) 06:06:53 437.490
STRAND 1 02 Feb 06:05:12 06:10:17 80° 76° (ENE) 06:15:25 437.568
JAS-2 02 Feb 06:12:23 06:16:00 16° 291° (WNW) 06:19:26 435.910
CUTE-I 02 Feb 06:14:54 06:20:19 89° 97° (E) 06:25:42 437.470
YUBILEINY 02 Feb 06:42:30 06:51:17 76° 266° (W) 07:00:04 435.215
PHONESAT 2.4 02 Feb 07:08:00 07:11:27 44° 336° (NNW) 07:14:55 2401.200-2431.200
VERMONT LUNAR 02 Feb 07:21:52 07:24:44 24° 344° (NNW) 07:27:37 437.305
Cubesat XI-IV 02 Feb 07:38:23 07:41:16 14° 293° (WNW) 07:43:50 437.490
DOVE 4 02 Feb 07:51:24 07:53:33 13° 89° (E) 07:55:57 437.250
CUTE 1.7 + AOD 2 02 Feb 07:53:29 07:56:21 18° 94° (E) 07:59:20 437.475
GOMX 1 02 Feb 07:58:19 08:02:31 25° 93° (E) 08:06:38 467.674
HO-68 02 Feb 08:07:02 08:13:36 39° 99° (E) 08:20:15 435.675
SEEDS 02 Feb 08:17:14 08:20:55 30° 97° (E) 08:24:37 437.485
BRITE-PL 02 Feb 08:24:34 08:30:08 75° 100° (E) 08:35:19 437.365/2234.400
COMPASS 1 02 Feb 08:37:06 08:41:05 44° 99° (E) 08:45:04 437.405
UNISAT 6 02 Feb 08:38:11 08:39:21 11° 69° (ENE) 08:40:51 437.425
CINEMA 3 02 Feb 08:41:21 08:45:08 25° 94° (E) 08:48:52 145.822/145.860
PHONESAT 2.4 02 Feb 08:48:01 08:50:34 18° 353° (N) 08:53:07 2401.200-2431.200
UKube-1 02 Feb 08:49:46 08:51:04 11° 92° (E) 08:52:40 .
SO-50 02 Feb 08:58:47 09:03:14 60° 300° (WNW) 09:07:51 436.795
AAUSAT CUBESAT 2 02 Feb 08:59:50 09:03:59 78° 101° (E) 09:08:07 437.432
VERMONT LUNAR 02 Feb 09:01:24 09:03:35 15° 1° (N) 09:05:46 437.305
QB50P1 02 Feb 09:02:42 09:03:08 10° 69° (ENE) 09:03:53 145.935-145.965
CANX-2 02 Feb 09:04:49 09:08:52 45° 285° (WNW) 09:12:53 2200.000
ANTELSAT 02 Feb 09:11:35 09:15:32 28° 73° (ENE) 09:19:33 437.575/2403.000
ZACube-1 02 Feb 09:11:55 09:15:01 20° 94° (E) 09:18:12 437.345
DX 1 02 Feb 09:13:58 09:17:34 25° 96° (E) 09:21:16 434.975-435.025
TIGRISAT 02 Feb 09:16:29 09:20:34 31° 73° (ENE) 09:24:43 435.000
POLYITAN 1 02 Feb 09:18:08 09:20:52 17° 71° (ENE) 09:23:47 437.675
FUNcube-1 02 Feb 09:21:56 09:25:31 26° 95° (E) 09:29:06 145.935
CUBEBUG 2 02 Feb 09:23:09 09:27:22 42° 98° (E) 09:31:28 437.445
DOVE 4 02 Feb 09:26:53 09:31:44 48° 286° (WNW) 09:36:17 437.250
CUTE 1.7 + AOD 2 02 Feb 09:28:45 09:32:18 26° 287° (WNW) 09:35:46 437.475
AIST 1 02 Feb 09:32:32 09:34:34 14° 89° (E) 09:36:52
DUCHIFAT 1 02 Feb 09:34:47 09:38:19 26° 73° (ENE) 09:41:56 145.980
POPSAT HIP 1 02 Feb 09:34:49 09:38:22 27° 73° (ENE) 09:42:02 437.405
GOMX 1 02 Feb 09:36:06 09:40:37 29° 289° (WNW) 09:44:49 467.674
Oscar 11 02 Feb 09:45:23 09:49:39 64° 283° (WNW) 09:53:54 145.826/435.025
UWE-3 02 Feb 09:53:31 09:57:56 86° 100° (E) 10:02:11 435.000/436.395/437.385
SEEDS 02 Feb 09:53:55 09:56:32 16° 289° (WNW) 09:58:59 437.485
HO-68 02 Feb 09:54:59 10:01:12 32° 292° (WNW) 10:07:16 435.675
AISAT 02 Feb 09:59:31 10:03:31 31° 97° (E) 10:07:32 437.250
